Tracking 35275 objects as of 9-Sep-2026
HD Live streaming from Space Station
objects crossing your sky now

STARLINK-32412

Track STARLINK-32412 now!
10-day predictions
STARLINK-32412 is classified as:


NORAD ID: 61680
Int'l Code: 2024-193V
Launch date: October 26, 2024
Source: United States (US)
Launch site: AIR FORCE EASTERN TEST RANGE (AFETR)
Your satellite tracking list
Your tracking list is empty




NASA's NSSDC Master Catalog

Two Line Element Set (TLE):
1 61680U 24193V   26251.45009348 -.00000712  00000-0 -11178-4 0  9993
2 61680  53.1609 320.9981 0001380 118.5492 241.5649 15.31719051104527
Source of the keplerian elements: AFSPC